Wind_Speed
6 5 5 6 7 6 4 4 4 5 7 6 4 3 3 2 2 3 5 6 6 4 4 5 6 7 7 9 10 11 15 19 22 23 23 24 25 23 23 22 21 20 19 19 17 16 14 13 13 12 11 10 10 11 10 10 10 9 8 6 4 2 2 3 5 7 8 10 11 11 11 12 13 16 18 19 19 18 18 18 17 17 17 20 22 22 20
5 5 5 4 6 6 4 6 6 5 6 8 7 5 4 5 6 6 10 12 9 5 3 4 5 5 8 10 12 15 17 19 23 26 26 26 26 25 24 23 22 21 20 18 17 16 14 14 13 12 11 10 9 9 9 9 8 8 7 6 5 3 1 1 3 5 6 8 9 10 11 12 12 15 17 18 18 17 17 17 18 18 19 22 24 25 25
1 3 5 5 5 6 5 5 5 4 5 6 6 6 5 7 8 7 9 12 9 3 2 4 4 5 9 13 16 17 17 18 23 26 26 27 26 25 24 22 21 20 19 18 17 16 15 15 13 12 12 11 8 8 8 8 7 7 6 5 4 3 2 1 1 3 4 6 7 9 11 12 13 14 16 17 18 18 18 19 19 20 22 23 25 27 29
3 1 2 2 5 6 4 2 1 3 3 2 3 3 2 2 6 8 7 7 5 4 4 6 6 8 13 15 16 16 16 19 24 26 27 28 27 25 24 22 21 20 19 18 18 17 15 14 13 12 12 10 8 7 7 7 6 5 4 3 3 2 1 2 2 3 4 6 7 9 11 12 13 14 16 17 17 18 19 19 20 21 23 23 24 26 29
3 2 4 4 3 2 3 3 1 2 2 3 3 4 4 3 2 5 3 4 7 7 6 7 8 11 14 13 13 14 16 21 26 26 26 27 26 25 24 22 21 20 19 18 18 17 16 15 14 12 12 10 9 8 7 6 5 4 4 3 3 2 1 1 2 3 5 6 8 9 11 12 14 15 16 16 16 16 16 17 19 20 20 20 21 22 26
3 4 5 5 3 3 1 2 3 2 1 4 5 5 5 4 2 2 5 8 9 8 6 8 10 11 11 12 14 17 19 22 25 25 24 24 23 22 21 20 20 18 17 17 16 15 15 15 14 12 10 10 9 9 7 5 4 4 4 4 4 4 3 2 2 2 2 4 5 7 10 12 13 14 15 15 14 14 15 15 17 16 15 15 15 17 20
4 5 5 5 4 2 3 5 2 2 4 9 12 11 8 7 6 8 11 11 9 9 10 11 13 14 14 15 18 20 20 21 22 22 21 20 19 18 18 17 17 16 15 15 14 14 14 14 13 12 10 9 8 7 7 7 6 5 5 4 5 6 5 5 4 3 2 3 4 5 7 9 11 13 14 14 14 14 15 16 17 16 14 12 12 12 14
3 5 5 4 1 2 4 4 3 5 6 7 9 9 8 7 4 6 11 11 10 11 12 12 15 17 17 17 18 17 17 17 17 17 17 16 15 15 15 14 14 14 13 13 13 13 13 13 12 12 11 10 9 7 7 8 8 8 7 6 6 7 7 6 6 6 5 5 5 6 6 6 7 9 11 11 11 10 11 13 15 16 14 13 12 11 11
1 3 2 1 1 2 1 3 3 3 2 1 2 4 5 4 4 3 9 10 10 10 10 11 12 13 12 11 12 13 13 13 13 13 12 11 11 11 10 10 10 10 10 10 11 11 12 12 12 12 11 11 10 9 8 8 8 9 10 11 10 10 8 8 8 9 8 8 7 6 5 6 6 6 7 7 7 6 7 8 9 11 11 11 11 11 11
1 2 2 1 1 2 3 3 1 1 1 1 1 2 4 2 2 2 7 7 7 7 7 8 7 4 3 4 6 9 10 10 9 9 9 9 9 8 8 8 8 8 9 9 10 11 12 12 13 13 12 12 12 11 10 9 8 9 10 10 11 11 10 9 9 10 10 9 8 7 6 5 6 7 7 7 7 6 6 6 7 8 9 9 9 10 10
1 2 3 3 2 1 1 1 1 4 3 3 3 2 4 2 1 3 6 6 5 5 5 7 7 3 1 3 3 5 7 8 8 8 8 9 9 9 10 10 11 11 12 12 12 13 14 14 15 15 15 15 15 15 14 11 10 10 11 11 11 11 11 10 9 9 9 9 8 8 8 7 7 8 8 9 9 8 8 8 8 9 9 10 10 11 11
1 1 0 1 1 1 2 2 4 7 3 3 4 4 4 4 3 5 7 7 6 6 6 6 4 0 1 3 2 4 6 7 8 9 10 11 12 12 13 13 14 14 15 15 16 17 17 18 18 18 19 19 18 18 18 17 15 14 14 13 13 13 13 13 11 10 9 9 9 10 10 10 9 9 9 10 10 10 10 10 10 11 11 12 12 12 12
1 1 1 0 0 1 1 4 6 5 1 5 4 2 5 6 6 7 9 8 8 9 8 6 4 4 4 4 2 3 6 7 9 10 11 12 13 14 15 16 17 17 18 18 19 19 19 20 20 21 22 22 22 22 22 21 19 18 18 17 16 16 16 16 15 13 12 11 11 12 13 13 12 12 11 10 10 9 10 11 12 13 14 14 13 13 12
1 1 2 0 0 1 2 5 4 2 2 3 2 4 8 9 9 9 9 8 9 10 9 8 7 5 3 2 3 5 7 9 10 11 13 14 15 16 17 18 19 20 21 21 21 21 21 22 22 23 24 24 24 25 25 24 23 22 22 21 20 20 19 19 19 19 18 16 15 14 14 14 15 15 14 13 13 11 11 12 13 14 15 15 14 13 12
1 2 1 1 2 2 4 4 1 2 1 3 7 9 10 10 10 10 9 8 7 7 7 6 5 4 3 4 6 7 9 10 12 13 14 16 17 18 19 20 21 23 23 24 24 24 24 24 24 25 26 26 26 27 27 26 25 26 25 24 24 24 22 22 22 22 22 22 20 19 17 17 17 18 18 17 17 16 15 15 16 16 16 15 13 12 11
0 1 2 1 0 4 5 2 3 6 7 10 12 10 8 9 9 8 7 6 5 5 5 5 5 5 6 7 8 10 11 12 14 15 16 18 19 20 21 22 23 24 25 26 27 27 27 27 27 27 27 28 29 29 29 28 27 28 28 27 27 27 26 25 24 24 24 24 23 22 22 21 19 20 21 22 22 21 19 18 19 19 18 17 15 13 11
2 2 3 2 1 4 8 10 12 12 13 12 10 9 9 8 6 5 5 4 4 5 5 6 7 7 9 10 11 12 13 14 16 17 18 20 21 22 22 23 24 25 26 27 28 29 28 28 28 28 29 29 30 30 30 29 29 30 30 30 29 29 28 27 26 25 25 25 25 24 24 23 21 20 21 24 26 26 24 22 21 20 20 18 16 13 10
5 6 5 3 4 8 12 14 14 12 11 9 8 8 8 6 5 5 4 4 5 6 6 7 8 9 10 12 13 14 15 16 18 20 20 21 21 22 23 24 25 27 28 29 31 31 31 30 30 30 30 31 31 32 31 30 30 30 31 32 32 31 31 30 29 27 26 26 26 25 25 25 24 23 22 23 25 27 25 22 20 20 21 20 17 15 13
3 3 3 2 3 5 8 10 10 9 8 7 6 6 6 5 4 5 5 6 6 7 8 9 9 10 12 14 15 17 18 19 20 20 20 20 21 22 24 25 27 28 29 30 30 31 31 30 30 30 30 30 31 32 32 31 31 31 32 33 34 34 33 32 31 30 28 27 26 25 25 25 26 26 26 26 25 25 25 24 23 23 24 22 20 18 16
2 3 5 3 2 2 3 5 7 7 6 6 4 3 3 2 3 4 5 6 7 8 9 10 11 13 15 17 18 20 20 19 19 19 19 21 22 23 24 25 26 26 26 26 26 27 28 27 27 27 27 27 27 28 29 30 31 31 32 33 34 35 35 34 34 33 31 29 27 26 25 25 26 27 28 29 27 23 23 25 27 25 22 21 20 19 17
3 3 4 4 2 2 4 5 5 6 6 4 2 1 1 2 3 4 5 6 6 8 9 11 14 16 17 18 18 18 18 17 18 19 21 22 22 22 22 22 22 21 21 22 22 24 24 24 24 24 23 22 22 22 23 24 26 28 30 31 33 34 35 36 36 34 33 32 30 28 26 25 26 27 29 30 29 26 23 23 24 22 19 18 19 18 15
3 2 6 8 4 1 5 8 8 8 6 3 1 2 2 3 3 4 4 5 7 9 11 13 15 16 16 16 16 16 16 16 18 20 21 22 22 21 20 19 19 18 18 19 20 22 22 22 23 23 23 23 22 21 20 20 21 23 26 28 30 33 34 36 37 36 35 34 32 30 29 27 25 25 26 28 29 30 29 28 27 26 26 25 23 21 20
1 3 12 14 4 3 4 10 9 8 5 2 1 2 2 2 2 3 4 6 9 10 12 13 13 14 15 15 16 16 16 16 18 21 21 21 21 20 18 17 17 17 17 18 19 20 21 22 23 23 24 25 25 24 24 23 23 24 24 25 27 29 30 33 36 36 36 36 34 31 30 29 27 24 22 22 23 25 28 30 30 29 30 28 23 20 19
2 4 14 15 4 5 5 8 8 6 4 2 1 1 1 1 2 4 6 8 10 10 11 11 12 13 14 14 14 15 16 18 21 22 21 19 17 16 15 14 15 16 17 18 19 20 21 22 24 25 26 26 26 26 25 25 25 25 26 27 27 27 26 28 31 34 36 37 36 33 30 29 29 26 23 23 22 21 23 25 25 25 26 24 20 18 19
5 6 12 13 5 2 4 6 6 5 4 2 2 2 1 2 5 6 7 8 9 10 11 11 12 13 13 12 13 16 18 20 21 20 18 15 13 12 12 12 13 15 16 17 19 20 22 24 26 27 29 29 29 28 26 25 24 25 26 28 29 28 28 27 27 29 32 36 37 35 32 30 28 27 27 28 29 30 30 27 22 20 21 21 20 19 20
8 9 11 11 6 3 4 5 5 5 4 3 2 1 2 5 6 6 6 7 8 10 11 11 11 12 11 12 14 17 19 20 18 15 13 12 11 11 11 11 12 13 15 17 19 21 24 26 28 30 32 31 29 27 26 25 25 25 26 27 28 29 28 27 26 25 27 32 37 37 34 31 28 27 26 27 27 31 33 31 26 22 21 20 20 20 21
7 8 8 7 5 5 5 5 4 4 5 4 1 1 4 5 4 4 5 7 7 8 9 9 10 12 12 13 15 17 17 16 13 11 10 10 10 10 10 11 12 13 14 17 20 23 25 27 30 33 33 30 26 25 25 25 25 26 26 27 28 28 28 26 26 24 24 28 34 37 34 31 29 27 27 25 23 23 23 23 23 24 24 24 24 24 26
5 6 5 4 3 3 5 5 4 4 5 4 1 3 3 2 2 3 4 4 5 6 7 8 10 12 13 13 15 15 14 12 11 10 10 10 10 10 10 11 12 13 15 18 21 24 26 29 32 34 31 26 23 23 23 23 24 25 26 26 26 27 27 26 25 24 24 25 31 36 35 31 28 27 27 26 24 21 19 18 19 20 21 19 18 19 22
5 5 5 3 2 1 3 5 6 5 5 4 2 3 2 1 2 3 2 3 4 5 7 9 11 11 12 13 13 12 12 12 12 11 12 12 10 9 11 13 14 14 16 19 22 25 27 30 34 32 27 22 21 21 21 22 22 23 24 25 25 25 25 24 22 22 22 22 27 33 34 29 26 25 26 27 25 23 22 22 21 20 18 15 13 14 16
6 5 5 3 2 1 2 5 6 7 6 4 3 1 1 1 2 3 3 4 5 5 7 9 11 11 12 12 12 12 12 12 12 12 12 12 10 9 11 14 15 15 17 20 23 26 28 32 33 29 22 20 21 21 22 23 23 22 22 22 21 21 22 20 18 19 19 18 22 29 31 27 24 24 26 26 25 23 24 24 23 21 19 17 17 18 19
6 5 5 4 3 2 3 5 7 7 6 5 4 2 1 2 3 4 4 5 6 6 7 9 11 12 11 11 11 12 12 12 12 12 11 11 10 10 12 13 13 15 17 20 23 26 28 32 32 27 20 19 21 21 22 24 24 21 19 17 16 15 16 14 13 15 15 14 18 26 28 23 21 23 24 25 24 24 24 25 24 23 22 20 20 22 23
5 5 6 6 5 5 6 7 8 9 8 6 5 4 2 3 4 5 6 6 7 7 8 9 10 12 11 9 10 11 10 11 11 11 9 9 10 10 10 10 11 13 16 19 22 26 28 31 32 28 21 18 19 21 22 23 22 18 13 9 8 7 9 9 9 11 12 13 17 25 26 21 19 19 21 22 22 22 23 23 24 24 23 23 22 23 25
4 5 6 7 7 8 9 10 11 10 8 6 6 4 3 4 5 6 6 7 7 7 7 8 10 11 10 9 10 11 10 9 9 8 7 7 8 8 9 10 10 11 14 17 21 24 26 29 32 31 25 19 18 20 22 21 20 17 12 7 5 2 3 4 6 8 10 12 19 25 24 20 18 16 17 17 17 18 19 20 21 22 23 23 23 24 26
3 4 5 6 7 8 9 10 11 11 9 7 6 4 3 3 4 6 6 7 7 7 7 7 9 10 11 11 11 11 10 8 7 7 7 8 8 9 9 9 8 9 11 15 19 22 24 27 31 33 29 22 18 18 19 19 19 18 15 12 9 6 2 1 3 4 5 12 21 24 21 17 15 14 14 14 13 14 15 15 15 16 17 18 20 23 27
4 4 4 5 6 6 7 8 10 10 9 7 6 4 2 3 4 6 7 7 7 6 6 6 7 9 12 12 11 10 9 7 7 8 9 9 10 9 9 8 7 8 10 13 17 20 22 25 29 33 33 27 20 17 17 18 17 17 16 14 11 9 6 3 2 3 7 14 19 20 17 14 13 12 12 12 12 13 12 11 11 11 12 14 16 19 22
2 2 3 3 4 5 8 9 9 10 8 7 6 4 3 4 5 7 8 8 8 6 6 6 6 8 11 13 12 9 8 8 8 9 9 10 11 11 9 9 8 9 10 13 17 19 22 24 27 30 33 32 25 18 16 17 17 17 16 13 11 10 9 7 5 6 12 16 18 16 14 13 12 12 12 12 12 12 11 10 10 9 10 13 14 15 19
1 1 2 2 3 6 7 8 8 8 7 6 5 4 4 5 7 8 8 9 8 6 5 4 5 6 9 12 11 9 8 9 9 9 10 10 11 11 10 9 8 9 11 14 17 19 21 23 25 26 31 34 31 24 18 15 16 18 18 16 13 11 10 8 7 8 13 17 17 15 13 12 12 12 12 12 12 12 12 12 10 7 7 9 11 13 19
1 1 1 2 4 7 7 7 7 6 6 5 4 3 4 6 8 8 8 9 8 6 4 4 4 5 7 9 10 8 7 8 8 8 9 9 10 10 10 9 9 11 12 15 16 17 19 21 23 24 27 30 32 30 24 18 15 15 16 17 16 15 13 11 10 10 12 15 15 15 13 12 12 12 12 13 13 13 13 12 10 6 6 8 10 14 20
1 1 1 3 5 7 8 8 7 6 5 4 4 3 5 7 8 8 8 8 8 6 4 3 3 4 5 7 8 7 6 6 6 7 8 8 9 9 10 9 11 12 12 13 14 15 15 17 20 22 24 26 28 30 29 26 22 19 17 16 16 15 14 13 12 12 12 12 13 13 12 12 11 11 11 11 11 11 11 10 8 7 8 10 13 20 24
1 1 1 3 5 6 8 9 8 7 6 5 4 3 6 8 8 7 7 8 7 5 4 3 2 2 4 6 6 5 4 4 5 5 6 6 6 6 6 7 9 10 10 11 12 12 13 14 16 19 21 22 23 24 26 27 28 27 26 24 21 19 17 14 12 11 10 10 10 10 10 10 10 10 10 10 9 10 10 11 12 14 16 18 20 24 25
3 1 2 3 4 6 8 9 9 9 8 7 4 4 6 7 7 7 8 8 7 5 3 2 1 1 3 5 5 5 4 3 4 4 4 4 4 4 4 6 8 9 10 11 12 11 11 12 14 16 18 19 19 19 20 22 25 27 28 29 29 27 25 23 20 17 15 13 12 12 12 12 13 13 14 14 14 15 16 18 20 21 22 23 23 23 22
5 4 3 4 4 5 7 8 9 10 10 8 5 4 5 6 7 7 7 8 7 5 3 2 1 1 3 5 5 5 4 3 3 3 3 3 5 5 6 6 7 8 10 11 11 10 11 12 13 15 16 16 17 16 17 18 20 22 24 25 26 27 27 27 27 25 23 22 20 19 19 19 20 20 20 20 20 20 21 22 23 23 22 22 21 20 19
7 6 6 5 5 6 6 8 9 11 12 11 7 5 5 5 6 7 7 8 7 5 4 3 1 2 3 4 4 5 5 4 4 5 5 5 6 7 7 6 7 8 9 9 10 10 11 12 14 15 15 14 14 13 14 15 17 19 20 21 22 22 23 24 24 24 24 24 24 24 23 23 23 22 22 22 21 21 21 21 21 21 20 19 18 17 16
6 7 7 7 6 6 7 8 9 10 12 12 9 7 6 5 5 6 7 8 7 6 4 3 2 2 3 3 4 4 4 4 5 6 6 6 7 7 7 7 7 8 8 9 9 10 11 13 14 14 14 13 12 12 13 14 15 16 17 18 19 19 20 21 21 21 22 22 21 21 21 21 20 20 20 20 19 19 19 18 18 17 16 15 15 14 13
6 7 7 7 7 8 8 9 9 9 10 11 10 10 9 7 6 5 5 7 7 6 4 4 3 2 2 3 3 3 3 4 4 5 6 6 6 6 7 8 8 8 8 9 9 9 10 12 13 13 13 12 12 11 12 13 14 14 15 16 17 17 18 19 19 20 20 20 20 19 19 18 18 18 17 17 17 17 16 15 14 13 12 12 12 11 11
9 8 7 8 8 9 9 8 8 9 10 11 13 13 12 10 8 6 5 5 6 6 5 4 3 2 2 2 2 2 3 3 3 4 5 5 5 6 8 9 9 10 10 9 9 9 10 12 12 12 12 12 12 12 12 12 12 12 13 14 15 15 16 16 16 16 17 17 17 18 18 18 18 18 17 16 15 15 14 13 12 12 11 11 11 11 11
10 10 10 10 10 9 9 9 9 10 11 13 15 15 14 12 10 8 6 5 5 6 5 4 3 2 1 1 1 1 2 2 3 3 4 5 5 6 8 9 10 10 11 10 10 10 11 12 12 12 12 11 11 11 12 12 12 12 12 12 12 13 13 13 13 13 13 13 13 13 14 14 15 15 15 14 14 13 12 11 11 10 10 10 10 10 10
9 10 10 11 11 11 11 11 12 12 13 14 15 15 14 13 12 11 9 8 7 6 5 4 4 3 2 1 0 0 1 1 2 2 3 4 5 6 8 9 9 10 11 12 12 12 12 12 12 12 11 10 10 10 11 11 11 11 11 11 11 11 10 10 10 10 10 10 10 10 10 10 10 10 10 10 10 10 9 9 9 9 9 9 8 8 8
8 9 9 10 12 13 13 13 14 14 15 15 15 15 14 14 15 14 12 11 9 7 6 5 5 4 3 2 2 2 1 1 2 2 2 3 4 5 7 8 8 9 10 11 12 12 13 13 13 12 12 11 11 11 11 11 11 11 11 10 10 10 9 9 8 8 7 7 7 6 6 6 6 6 6 6 6 6 6 6 6 7 7 7 7 7 7
10 10 10 11 13 14 15 15 15 15 15 15 16 15 15 15 16 16 15 13 12 9 8 7 6 5 5 4 3 3 2 2 2 3 3 3 3 4 5 6 7 8 9 10 11 12 13 13 13 13 13 12 12 12 12 11 11 11 11 10 10 10 10 10 10 9 8 8 7 7 7 6 6 6 6 6 6 6 6 6 6 6 7 7 7 6 5
13 13 13 13 14 15 15 15 16 16 15 14 14 15 15 16 16 16 15 15 14 12 10 9 8 7 6 5 4 4 4 3 3 3 3 3 3 3 4 5 6 7 8 9 9 10 11 12 12 13 13 13 13 13 12 11 11 11 11 10 10 10 10 10 10 10 10 10 10 10 10 10 10 10 9 9 9 9 9 9 9 9 9 8 8 7 7
16 16 15 15 15 16 16 15 15 16 15 14 14 15 16 16 16 16 16 17 17 15 13 11 10 9 7 6 6 5 5 4 4 3 3 3 3 3 4 4 5 6 7 7 8 8 9 10 11 11 12 12 13 13 12 11 11 10 10 10 10 10 10 9 10 10 11 11 12 13 13 13 13 12 12 12 11 11 12 12 13 13 12 12 11 11 10
Wind_Direction
50 51 63 73 79 88 79 49 20 9 17 26 48 46 347 301 174 152 127 110 101 87 52 39 38 42 62 66 61 67 72 77 81 79 75 72 69 69 67 65 64 63 62 60 58 58 58 57 61 65 67 68 70 75 79 79 80 80 75 74 75 97 160 188 203 215 225 233 242 249 249 246 240 235 234 235 241 249 254 254 252 250 249 243 238 235 236
26 11 12 41 73 83 70 46 30 27 50 60 68 60 36 55 74 97 113 105 94 92 76 53 56 67 78 76 69 69 70 72 76 75 71 68 67 66 65 64 63 61 59 59 58 59 58 55 55 57 59 60 60 65 70 72 75 74 71 68 58 49 65 175 193 199 209 221 234 248 256 258 251 242 240 243 250 255 255 253 253 253 252 248 242 239 240
308 335 354 356 37 62 64 58 46 33 46 62 78 85 76 78 83 91 100 99 94 88 67 78 92 91 82 76 69 66 65 68 73 72 69 68 67 65 64 62 61 58 55 53 52 52 52 51 50 51 54 57 56 57 61 63 65 67 68 72 64 44 15 330 243 206 203 213 227 240 249 255 255 252 252 253 257 259 256 252 252 253 253 251 249 246 243
201 181 57 20 27 30 2 334 56 38 26 47 78 81 49 91 128 128 112 101 110 122 107 100 97 85 78 73 68 67 64 66 71 71 68 68 68 65 63 60 58 55 51 48 45 43 42 41 41 40 41 46 52 53 52 52 55 59 60 65 71 64 359 308 284 263 242 232 234 238 242 246 247 250 253 255 256 256 254 250 250 253 254 254 254 251 246
170 110 114 112 77 25 302 297 350 62 89 123 104 61 20 356 156 153 137 123 128 133 130 108 88 78 75 68 65 67 66 67 71 71 69 68 67 65 63 60 58 55 52 48 43 40 37 32 29 28 24 23 28 32 35 35 36 40 45 49 54 55 35 299 275 271 263 256 250 244 242 243 241 241 244 247 247 245 243 244 246 249 251 252 251 251 248
139 113 115 122 152 194 255 332 294 274 105 112 103 71 32 17 36 101 103 117 130 136 130 110 96 85 78 74 71 70 70 70 71 70 69 67 65 64 62 60 58 55 52 49 43 39 36 30 24 18 11 9 11 12 11 6 359 4 12 13 14 18 15 3 337 298 279 278 273 260 250 244 239 237 238 240 240 238 237 239 241 243 245 245 245 246 245
122 127 128 141 181 230 348 348 292 196 126 107 97 78 50 45 80 106 111 120 131 130 120 111 106 99 90 83 77 73 71 70 70 69 67 64 61 59 56 54 51 48 46 44 39 35 32 27 22 14 6 2 357 349 345 340 334 335 339 344 352 352 347 344 345 340 335 333 322 305 283 259 242 236 237 240 242 243 244 242 239 236 232 231 234 235 234
128 151 161 172 211 341 9 35 90 127 131 121 99 77 51 30 37 101 117 121 125 125 120 116 110 104 95 84 75 71 71 68 67 67 64 60 57 53 47 43 38 35 33 31 28 25 21 18 15 12 9 4 354 340 330 325 323 321 316 310 314 318 315 309 307 307 309 312 316 320 317 297 263 243 241 246 248 249 247 242 235 231 226 223 224 222 220
135 142 148 152 339 318 136 116 117 130 133 141 102 88 73 27 359 86 120 126 133 134 133 130 119 106 96 84 66 57 60 61 60 60 58 55 51 45 39 33 27 21 17 12 7 4 1 356 353 353 357 357 353 345 332 316 307 305 304 297 290 285 283 279 274 274 281 288 289 288 296 305 295 270 255 250 249 249 247 238 227 220 214 211 211 207 204
107 128 136 144 213 229 179 143 107 18 11 271 239 122 107 64 5 120 133 134 144 152 164 171 162 135 102 93 60 40 43 46 46 46 43 38 34 27 18 11 3 356 352 349 345 343 340 335 333 332 333 335 336 336 333 322 308 303 303 298 286 276 272 272 271 271 272 274 273 266 262 271 280 277 268 257 247 239 232 224 214 201 191 187 187 186 188
147 161 170 179 188 220 64 103 2 334 311 246 218 162 139 125 101 148 137 127 132 146 163 173 177 195 181 119 67 23 22 24 20 18 15 10 5 0 353 347 341 336 333 329 326 324 320 317 317 316 316 317 316 316 316 314 308 302 298 295 285 272 265 262 264 267 265 262 259 253 248 247 251 258 261 259 252 239 223 212 208 197 185 182 183 183 185
129 139 149 215 200 34 7 332 315 319 306 184 185 195 164 146 152 141 124 111 102 99 115 138 148 175 89 104 72 5 4 4 358 355 353 349 345 342 338 333 330 327 323 319 317 315 314 313 311 308 305 303 302 302 301 300 301 297 292 287 280 270 263 256 253 254 255 252 245 238 239 241 237 238 247 250 246 237 224 212 206 200 195 193 194 194 194
99 141 131 335 243 144 293 303 321 331 220 174 202 207 131 130 145 133 114 105 95 84 83 96 91 68 73 83 39 338 341 344 344 344 343 339 335 333 329 326 323 320 317 316 314 312 311 309 306 303 300 297 294 292 291 291 293 290 286 282 276 269 262 256 252 250 252 254 248 238 235 235 232 231 235 231 222 220 215 208 206 205 200 197 194 188 184
85 131 127 242 208 104 329 314 335 4 183 188 169 114 117 126 134 126 113 104 95 85 78 79 83 84 75 33 338 332 336 338 338 335 332 329 326 322 320 318 316 313 311 310 309 307 306 304 302 301 298 294 291 288 285 284 284 283 281 280 276 271 264 258 253 250 251 258 260 251 241 235 231 230 226 216 208 208 207 199 195 193 188 182 180 177 173
122 129 119 184 176 37 345 316 335 24 23 133 123 119 120 122 121 115 108 99 89 83 78 71 66 55 17 349 337 335 335 334 333 330 327 325 321 318 316 314 312 311 310 308 306 305 304 302 301 299 297 295 292 288 285 283 281 278 277 275 273 271 266 260 254 250 251 255 258 256 251 242 234 228 224 217 213 211 208 198 188 184 185 186 187 189 189
254 157 123 125 312 349 349 359 101 84 94 116 122 118 117 120 119 109 100 93 72 51 47 37 22 6 352 342 336 333 331 329 327 325 324 322 319 317 315 314 313 311 309 307 305 304 303 302 300 298 296 294 291 288 287 285 281 278 275 271 268 266 264 261 257 252 250 250 252 253 253 249 240 230 223 222 222 218 212 206 200 195 195 198 199 199 198
47 63 82 92 22 32 63 89 101 100 103 108 107 102 102 108 106 87 80 76 41 16 13 5 354 347 342 338 333 329 327 326 325 323 321 319 318 317 315 314 313 311 310 309 307 305 304 302 300 297 295 292 289 286 284 282 278 275 273 271 267 263 261 260 258 255 252 249 247 247 248 248 245 236 227 225 226 221 212 207 207 206 201 199 200 200 201
87 62 60 72 67 67 79 93 102 103 100 94 85 83 82 75 57 38 30 24 6 352 348 347 344 339 334 329 326 323 322 321 321 320 320 319 318 317 316 315 314 312 311 311 310 308 306 304 301 298 295 292 290 287 284 280 276 273 271 269 267 265 261 258 256 255 254 250 246 244 243 243 242 239 234 231 231 229 219 207 203 206 207 206 209 216 218
113 96 119 130 89 80 88 99 104 102 95 85 70 64 62 51 33 13 357 349 340 334 334 334 333 331 327 323 320 317 317 317 318 319 319 319 318 317 316 315 314 314 313 313 312 311 310 308 306 302 299 296 292 289 286 282 277 273 270 267 266 265 263 260 256 254 253 252 249 244 240 239 237 236 236 234 234 239 236 223 211 210 213 214 218 220 215
56 115 144 152 126 123 133 125 122 122 114 101 88 81 69 38 356 337 330 326 324 324 326 325 323 321 319 316 314 313 315 318 321 320 320 319 318 317 316 315 315 315 315 316 317 316 316 316 313 309 306 301 297 293 289 285 280 275 271 266 264 262 261 259 257 254 251 250 249 245 241 238 236 236 237 236 234 237 236 226 219 218 215 209 207 207 205
90 97 140 160 166 187 197 187 163 151 143 130 126 154 261 303 307 311 315 316 318 319 318 317 316 315 314 314 314 315 319 323 322 321 321 320 319 318 317 317 319 320 320 322 323 323 323 323 322 320 317 312 306 300 294 290 287 281 274 268 263 259 257 256 255 254 251 249 247 245 243 239 237 236 236 236 236 233 227 220 221 226 225 214 209 215 226
136 151 170 171 161 160 197 196 182 167 167 171 183 220 257 283 296 306 312 314 314 312 311 312 314 314 315 316 317 320 323 324 323 323 324 322 321 322 322 323 325 326 326 327 327 327 327 327 327 327 327 324 321 315 307 301 296 290 284 277 267 260 256 253 252 252 251 249 246 243 242 240 239 238 237 237 236 233 228 225 227 235 242 242 238 237 236
146 179 176 174 147 50 161 182 184 183 191 206 212 232 263 286 302 310 312 310 308 306 308 313 315 316 317 319 320 321 323 324 325 325 324 322 322 324 325 326 328 329 330 331 331 333 335 334 332 331 328 326 324 320 314 307 300 295 292 287 277 268 259 253 250 248 247 247 244 241 239 238 236 235 236 238 238 235 233 233 234 238 242 243 237 227 220
103 161 178 178 149 61 130 169 181 194 210 227 216 217 238 272 299 303 299 299 301 304 312 319 320 317 316 317 319 321 323 326 326 324 322 322 322 323 325 328 331 333 335 338 341 343 342 338 335 330 326 323 320 317 311 305 297 291 288 285 282 277 270 261 253 247 243 242 242 240 236 234 233 232 232 235 237 238 235 232 230 230 230 227 220 213 211
118 136 168 180 175 102 141 167 186 203 213 210 189 175 211 288 299 298 297 303 312 317 321 323 319 315 314 317 320 322 324 326 325 322 321 322 324 325 329 334 338 339 342 346 348 346 341 336 333 328 324 323 321 316 310 303 294 286 281 279 277 277 276 272 264 254 244 239 238 237 235 232 231 230 231 233 237 240 239 236 233 228 221 215 216 218 214
127 135 158 177 186 177 167 174 194 207 201 184 171 181 289 300 300 298 306 318 322 322 322 322 319 315 315 317 319 320 322 323 323 322 325 330 335 336 339 344 346 346 348 349 346 342 338 335 332 328 325 324 322 316 309 303 294 286 280 275 273 273 274 273 270 264 252 240 235 234 234 232 230 227 227 229 233 238 242 245 248 244 232 220 218 221 221
138 147 155 163 177 195 197 197 205 202 186 173 173 296 297 299 304 313 322 324 323 326 330 328 322 318 317 316 317 319 322 326 329 334 339 343 345 346 349 351 350 349 349 347 343 339 337 335 333 331 329 326 323 316 309 303 295 288 282 277 271 269 269 269 268 266 258 246 235 231 230 230 228 225 224 222 224 231 237 240 240 238 234 229 227 232 236
154 167 168 164 180 206 212 215 211 189 174 176 248 297 287 292 325 335 333 333 337 346 349 343 333 326 323 323 323 325 329 336 344 350 353 353 353 355 354 349 347 348 348 344 340 339 338 337 336 335 332 329 326 320 313 306 298 291 285 279 273 268 265 264 264 263 261 252 237 228 226 226 225 224 223 221 221 223 225 223 220 221 225 228 231 237 235
185 191 198 208 223 202 196 203 200 185 178 195 258 280 255 265 340 334 336 351 356 357 356 352 347 340 335 333 334 335 339 347 354 357 357 357 359 360 349 341 343 348 347 343 341 341 342 343 342 339 337 335 332 327 322 316 308 300 291 283 275 268 263 261 260 260 262 257 238 225 220 220 220 221 222 220 219 218 219 220 222 224 227 233 238 231 210
214 211 211 217 222 194 180 189 191 188 191 204 225 227 204 258 314 326 341 346 344 346 348 348 349 348 342 340 343 346 347 351 355 356 356 355 356 352 342 338 344 350 349 346 347 349 350 351 348 344 343 344 340 335 331 325 317 309 299 289 279 270 263 259 257 257 260 257 235 219 214 214 215 216 218 217 215 215 217 221 226 228 229 231 233 227 211
217 221 219 214 210 201 192 193 194 195 198 202 202 194 209 282 308 326 337 336 336 341 340 340 346 350 344 340 346 353 354 355 355 354 353 350 344 339 338 339 345 350 349 349 354 358 357 356 355 353 352 350 346 343 342 336 328 318 307 294 285 273 261 256 253 250 255 252 225 208 203 203 206 211 214 213 212 213 216 220 223 225 226 226 225 223 219
206 213 216 217 215 211 206 202 201 201 203 206 208 213 249 294 310 320 323 321 325 331 330 332 343 349 345 342 352 0 2 2 359 355 350 345 338 334 336 341 347 351 351 354 1 4 1 359 2 4 2 356 354 355 354 351 346 340 329 314 300 276 257 251 245 243 248 242 214 198 192 190 192 200 208 210 212 214 215 216 218 221 225 227 225 221 219
204 206 216 224 223 219 215 212 207 205 207 212 216 226 262 296 308 316 316 314 315 318 320 325 338 346 349 353 2 7 7 7 5 359 354 348 343 340 342 344 350 355 355 360 8 10 4 1 7 11 9 4 5 7 5 5 9 14 19 24 28 359 268 255 244 242 244 225 201 191 187 185 186 191 198 202 207 210 211 213 217 220 223 225 224 220 219
235 232 234 241 240 231 226 222 215 209 209 216 225 239 272 304 316 324 323 319 315 313 312 319 334 348 358 5 10 11 11 13 15 15 12 6 359 354 350 352 358 3 3 7 14 16 11 7 10 14 15 14 14 13 12 15 22 29 35 42 47 47 42 238 229 234 219 198 189 186 185 185 186 189 192 195 202 208 211 215 222 225 227 229 228 226 223
240 239 240 253 255 236 220 213 209 208 212 218 223 232 264 301 321 332 333 329 324 315 308 310 324 342 352 358 4 11 14 14 17 20 18 13 9 4 1 5 14 16 14 17 21 21 18 15 13 16 19 22 22 20 19 21 25 28 32 36 37 38 45 75 149 169 171 175 179 180 181 182 185 190 194 200 209 214 218 225 230 231 235 236 234 233 228
215 226 240 255 245 215 201 195 195 200 209 213 211 218 259 301 320 328 331 332 329 317 302 303 315 331 341 344 348 1 13 11 7 10 12 10 9 7 6 10 15 15 17 25 28 25 23 20 17 17 21 25 28 27 26 28 30 29 29 33 38 41 49 65 96 143 162 169 172 172 173 176 184 192 199 208 219 225 231 237 241 243 245 241 235 232 226
154 214 229 226 197 188 190 191 191 194 199 200 203 229 276 308 322 325 328 333 331 318 299 298 308 320 333 337 340 350 4 5 2 6 8 5 4 3 4 10 17 15 16 23 26 24 22 22 21 20 23 27 31 33 33 34 36 35 35 40 48 53 60 71 90 127 155 166 171 172 175 181 190 198 206 216 227 234 237 241 247 250 245 235 225 217 213
109 176 192 190 187 187 188 187 187 188 188 191 208 254 295 314 322 325 327 330 329 320 302 294 298 309 327 335 336 340 351 357 360 5 5 360 358 360 3 12 24 25 21 21 21 19 19 21 24 25 25 28 32 36 38 40 41 40 42 47 52 57 65 77 92 116 143 160 169 177 184 193 201 210 218 226 231 231 229 234 241 236 220 215 204 189 185
110 141 194 199 199 197 196 194 192 191 194 203 224 269 305 314 319 325 328 328 326 324 315 300 294 310 330 337 337 336 340 347 353 358 359 357 354 352 357 12 26 29 25 21 18 17 19 24 29 32 31 30 33 38 42 47 50 51 51 53 56 61 67 77 90 107 127 145 160 172 183 194 203 211 214 216 216 209 204 206 204 185 174 174 170 166 164
136 107 214 215 207 204 205 204 203 204 211 223 244 284 308 312 315 323 331 329 326 328 331 313 296 321 341 345 345 342 339 343 348 349 350 353 350 345 355 19 35 38 36 31 25 22 24 30 36 39 39 37 35 37 42 49 55 58 59 60 63 67 73 79 88 99 113 128 143 156 168 178 183 183 177 169 164 162 158 154 151 149 147 147 150 154 157
200 199 239 244 233 221 217 217 216 216 220 229 249 284 306 312 313 319 330 333 333 340 348 327 283 339 2 1 360 360 1 3 2 354 348 353 357 1 16 33 42 46 45 41 35 29 29 35 42 45 45 43 40 39 42 47 54 59 62 64 64 66 70 74 79 85 92 100 112 121 128 131 132 133 132 131 130 132 135 136 136 138 141 144 147 150 152
224 227 247 264 261 247 235 229 226 225 225 227 239 272 299 309 312 317 330 338 342 352 359 338 302 27 26 18 16 24 32 34 29 23 19 21 26 29 32 38 44 48 49 48 45 40 38 41 46 49 50 48 45 45 48 52 55 57 61 64 65 66 68 70 73 77 81 85 90 96 101 106 109 111 113 115 117 121 126 130 133 136 141 144 146 147 147
241 243 252 262 267 266 255 243 236 232 226 222 226 250 281 298 310 320 331 340 348 359 3 349 343 32 31 25 30 38 41 43 45 44 43 44 43 40 37 40 45 49 52 53 51 47 46 47 48 49 51 51 51 52 57 61 62 62 63 65 67 70 72 73 74 76 79 82 86 90 95 99 103 106 109 112 116 122 127 130 134 138 141 142 143 143 145
256 256 260 263 265 267 262 252 246 241 230 220 220 235 254 272 294 312 324 333 342 353 1 356 353 15 25 25 35 43 44 45 47 44 42 46 49 47 45 47 50 53 57 59 58 55 53 52 51 49 49 51 55 59 65 67 67 68 69 70 72 74 77 80 83 84 84 85 88 91 96 100 104 108 112 115 118 122 126 129 133 137 140 141 142 144 146
264 266 268 266 260 260 260 257 254 251 241 229 227 235 245 253 269 292 312 323 329 338 350 354 355 8 22 25 36 50 53 52 51 49 49 51 53 55 58 59 60 62 63 63 63 63 62 59 56 52 49 48 52 59 67 70 71 71 72 75 77 77 79 82 85 88 91 94 95 96 98 101 104 107 111 114 117 120 123 126 131 137 142 147 151 153 154
269 272 272 263 254 253 256 257 256 253 246 237 235 239 243 246 254 268 285 301 313 322 332 336 339 352 12 19 31 53 68 68 65 65 63 59 58 63 67 66 65 67 68 68 67 69 69 67 63 59 54 50 49 52 58 65 70 72 75 76 78 79 80 81 83 85 89 93 97 101 103 105 107 109 110 113 117 120 123 128 135 141 148 154 158 161 164
267 269 270 267 262 255 250 249 250 251 248 244 243 244 243 243 248 255 261 269 285 301 312 315 316 317 333 10 24 45 71 78 74 72 71 65 60 61 65 66 66 68 69 70 70 71 71 71 69 65 61 57 53 52 54 58 63 68 73 77 78 80 81 82 84 86 88 89 92 97 102 106 109 112 115 117 120 124 128 133 139 145 151 157 162 166 172
264 265 266 266 265 261 256 253 253 254 254 253 253 252 249 245 245 247 249 252 260 272 284 293 295 290 271 259 305 332 118 111 97 84 78 73 66 61 62 64 65 66 68 69 69 69 69 69 69 67 64 62 60 60 59 58 58 61 67 73 77 79 81 82 84 86 90 94 96 98 101 104 108 113 118 124 129 134 140 147 154 159 165 171 178 185 195
268 266 265 264 265 266 266 264 261 260 260 259 258 255 252 247 244 243 243 244 248 253 259 266 273 275 265 243 222 205 188 163 139 118 99 85 76 70 67 65 64 64 65 66 66 67 67 67 67 67 66 64 63 64 64 63 62 62 63 66 71 76 81 85 88 90 94 100 105 109 112 116 121 126 132 140 147 153 161 172 182 188 192 195 199 202 208
276 273 271 271 270 269 268 266 264 266 267 265 260 256 251 247 244 242 241 241 243 246 246 246 253 262 262 245 221 209 211 206 180 154 137 125 107 90 81 75 71 68 67 66 65 66 67 67 67 67 66 65 64 66 66 66 66 65 64 65 68 70 72 77 83 88 94 100 107 112 116 120 124 127 132 136 141 147 154 162 170 175 179 180 177 172 166
276 274 274 275 275 273 268 262 258 259 263 264 261 257 253 249 248 246 243 240 240 241 240 239 241 244 245 242 235 225 215 206 197 183 168 157 143 123 107 96 86 79 74 70 67 66 67 68 68 67 65 64 64 67 68 68 67 67 66 66 67 69 71 75 79 84 89 97 105 110 112 112 112 112 113 114 117 121 124 125 127 130 135 139 138 133 126
270 269 269 270 272 273 271 264 255 251 253 258 260 259 255 252 250 249 245 241 239 239 239 238 235 231 231 235 236 225 212 211 218 219 205 186 174 160 140 121 104 92 86 81 76 72 70 70 69 68 66 64 63 63 65 67 67 67 68 69 71 73 76 79 82 84 88 95 104 110 112 112 112 111 108 106 106 108 112 114 114 114 115 116 116 115 115
Height
1481 1480 1479 1478 1477 1481 1486 1486 1484 1483 1481 1479 1477 1480 1486 1481 1472 1477 1490 1495 1499 1506 1509 1507 1507 1506 1503 1502 1502 1500 1500 1499 1499 1499 1499 1499 1499 1500 1501 1502 1503 1504 1504 1505 1505 1506 1507 1508 1509 1510 1511 1511 1512 1513 1514 1514 1514 1515 1515 1516 1516 1516 1517 1517 1518 1518 1519 1520 1520 1521 1522 1524 1525 1526 1528 1530 1531 1533 1534 1535 1536 1538 1539 1540 1540 1541 1542
1483 1482 1482 1480 1479 1481 1485 1488 1489 1487 1485 1486 1488 1492 1494 1489 1485 1488 1493 1498 1505 1509 1509 1508 1508 1507 1506 1505 1504 1502 1501 1501 1500 1500 1500 1500 1501 1502 1503 1504 1504 1505 1505 1506 1507 1508 1509 1510 1511 1512 1512 1512 1513 1513 1514 1514 1514 1514 1515 1515 1516 1516 1517 1517 1517 1517 1518 1519 1519 1520 1521 1523 1524 1525 1527 1528 1529 1530 1531 1533 1534 1535 1535 1536 1537 1538 1539
1484 1483 1484 1483 1480 1481 1485 1488 1491 1489 1487 1488 1490 1494 1494 1492 1495 1499 1497 1500 1508 1510 1509 1509 1509 1508 1507 1506 1505 1504 1504 1504 1503 1502 1502 1503 1503 1504 1505 1505 1506 1506 1507 1508 1508 1509 1510 1511 1512 1512 1513 1513 1513 1513 1513 1513 1513 1514 1514 1514 1515 1516 1517 1517 1517 1517 1517 1518 1519 1520 1521 1522 1523 1524 1525 1526 1526 1527 1528 1530 1530 1531 1532 1532 1533 1535 1536
1483 1484 1486 1485 1482 1483 1484 1485 1488 1489 1488 1490 1493 1496 1496 1493 1496 1499 1496 1499 1508 1511 1511 1511 1510 1509 1508 1507 1507 1508 1507 1507 1505 1504 1505 1505 1505 1506 1507 1507 1507 1508 1508 1509 1510 1510 1511 1512 1513 1513 1513 1514 1514 1514 1513 1513 1513 1514 1514 1514 1515 1515 1516 1516 1516 1516 1516 1517 1518 1519 1520 1521 1521 1522 1523 1523 1524 1525 1526 1527 1527 1528 1528 1529 1530 1531 1532
1482 1486 1486 1485 1485 1486 1484 1485 1491 1494 1495 1496 1498 1500 1501 1499 1497 1494 1492 1497 1506 1511 1511 1511 1511 1510 1509 1509 1510 1509 1509 1508 1506 1506 1507 1507 1508 1508 1508 1509 1509 1509 1510 1510 1511 1512 1512 1513 1513 1514 1514 1514 1514 1514 1514 1514 1514 1514 1514 1514 1514 1515 1515 1516 1516 1516 1516 1516 1517 1518 1518 1519 1519 1520 1521 1521 1522 1523 1524 1524 1524 1525 1525 1526 1527 1528 1529
1483 1489 1486 1486 1489 1488 1487 1492 1497 1497 1496 1497 1498 1501 1503 1502 1500 1497 1496 1501 1507 1509 1510 1511 1511 1511 1512 1512 1512 1511 1510 1509 1508 1508 1509 1509 1510 1510 1510 1511 1511 1511 1512 1512 1513 1513 1514 1514 1515 1515 1515 1515 1515 1515 1515 1515 1515 1515 1515 1515 1515 1515 1515 1515 1516 1516 1516 1516 1516 1517 1517 1517 1518 1519 1519 1520 1520 1521 1521 1522 1522 1522 1523 1524 1524 1525 1526
1484 1489 1486 1488 1491 1490 1491 1497 1497 1495 1496 1496 1498 1503 1505 1503 1502 1501 1501 1504 1507 1509 1511 1512 1512 1513 1514 1514 1514 1513 1512 1512 1511 1511 1511 1512 1513 1512 1512 1513 1513 1514 1514 1514 1514 1515 1515 1516 1516 1516 1516 1516 1516 1516 1515 1515 1515 1515 1515 1515 1515 1516 1516 1516 1516 1516 1516 1516 1516 1516 1516 1516 1517 1517 1518 1518 1519 1519 1519 1520 1520 1521 1521 1522 1522 1523 1524
1486 1486 1483 1486 1492 1495 1498 1499 1496 1495 1497 1496 1496 1502 1506 1506 1505 1504 1504 1507 1509 1510 1511 1512 1512 1514 1515 1515 1516 1516 1515 1515 1515 1514 1514 1515 1515 1515 1515 1515 1516 1516 1516 1516 1516 1517 1516 1517 1517 1516 1516 1516 1515 1515 1515 1515 1515 1515 1515 1515 1515 1516 1516 1516 1516 1516 1516 1515 1515 1515 1515 1515 1516 1516 1517 1517 1517 1517 1517 1517 1518 1518 1519 1520 1520 1521 1522
1489 1486 1487 1495 1499 1498 1498 1498 1497 1496 1497 1496 1496 1502 1509 1510 1508 1507 1507 1509 1511 1512 1512 1513 1513 1513 1514 1515 1517 1517 1517 1517 1517 1516 1517 1517 1517 1517 1517 1518 1518 1518 1518 1518 1518 1518 1518 1517 1517 1517 1516 1516 1515 1515 1515 1515 1515 1515 1515 1515 1515 1515 1515 1515 1515 1515 1515 1515 1514 1514 1515 1515 1515 1516 1516 1516 1516 1516 1516 1516 1516 1516 1517 1518 1519 1519 1520
1494 1488 1490 1498 1496 1490 1491 1496 1497 1497 1497 1497 1496 1499 1508 1511 1510 1509 1510 1510 1511 1513 1513 1513 1513 1513 1513 1514 1517 1518 1518 1518 1518 1518 1518 1518 1518 1518 1518 1518 1519 1518 1518 1518 1518 1518 1517 1517 1517 1516 1516 1515 1515 1515 1515 1515 1515 1514 1514 1514 1514 1514 1514 1514 1514 1513 1513 1513 1513 1513 1514 1514 1514 1515 1516 1516 1516 1516 1516 1516 1516 1516 1517 1517 1518 1518 1519
1492 1483 1481 1488 1489 1489 1493 1497 1498 1497 1497 1498 1497 1497 1503 1510 1511 1510 1511 1511 1512 1513 1512 1513 1514 1513 1512 1514 1518 1519 1518 1518 1518 1518 1518 1518 1518 1518 1518 1517 1517 1517 1517 1517 1516 1516 1516 1516 1515 1514 1514 1514 1514 1514 1514 1514 1514 1514 1513 1513 1513 1513 1513 1513 1512 1512 1512 1512 1512 1512 1513 1513 1513 1514 1515 1515 1515 1516 1515 1516 1516 1516 1516 1517 1517 1518 1519
1489 1484 1483 1489 1493 1497 1499 1498 1498 1497 1496 1498 1496 1494 1499 1508 1512 1511 1511 1512 1512 1512 1513 1513 1514 1513 1513 1515 1518 1519 1518 1519 1518 1518 1517 1517 1516 1516 1516 1515 1515 1515 1515 1514 1514 1514 1513 1513 1513 1512 1512 1512 1512 1512 1512 1512 1512 1512 1511 1511 1511 1511 1511 1511 1511 1511 1511 1510 1510 1511 1511 1512 1512 1513 1513 1514 1514 1514 1515 1515 1515 1516 1516 1516 1517 1518 1518
1488 1488 1489 1494 1498 1500 1500 1499 1498 1498 1497 1497 1495 1493 1499 1508 1511 1511 1512 1512 1512 1513 1513 1513 1514 1516 1516 1517 1518 1518 1518 1518 1518 1517 1517 1516 1515 1515 1514 1513 1513 1513 1512 1512 1512 1511 1511 1511 1511 1510 1510 1510 1510 1510 1509 1509 1510 1509 1508 1508 1508 1508 1508 1508 1508 1509 1509 1509 1509 1509 1509 1510 1510 1511 1511 1512 1513 1513 1513 1514 1514 1515 1515 1516 1516 1516 1517
1495 1494 1492 1494 1497 1499 1500 1499 1498 1497 1496 1495 1496 1500 1506 1509 1510 1511 1513 1513 1513 1514 1514 1515 1516 1517 1517 1518 1518 1518 1518 1518 1517 1516 1516 1515 1514 1513 1512 1512 1511 1510 1510 1510 1510 1510 1509 1509 1508 1508 1507 1507 1506 1506 1506 1506 1506 1506 1505 1505 1505 1505 1505 1505 1506 1506 1506 1506 1507 1507 1507 1508 1508 1508 1509 1510 1510 1511 1511 1512 1512 1513 1514 1515 1515 1515 1516
1498 1496 1494 1492 1493 1498 1500 1499 1497 1498 1498 1498 1502 1507 1509 1510 1511 1512 1513 1513 1514 1514 1515 1516 1516 1517 1517 1518 1517 1517 1517 1516 1516 1515 1515 1514 1513 1512 1511 1510 1509 1509 1508 1508 1507 1507 1507 1506 1506 1505 1504 1503 1503 1503 1503 1503 1503 1502 1502 1502 1501 1502 1502 1502 1503 1503 1503 1504 1504 1505 1505 1505 1505 1506 1507 1507 1508 1509 1509 1510 1510 1511 1512 1513 1514 1514 1515
1495 1492 1494 1496 1497 1500 1500 1498 1498 1500 1502 1504 1506 1507 1508 1510 1512 1512 1513 1514 1514 1514 1515 1515 1515 1516 1516 1516 1516 1516 1515 1515 1515 1514 1513 1513 1512 1511 1510 1509 1508 1507 1506 1506 1505 1505 1504 1504 1503 1502 1501 1500 1500 1499 1499 1500 1499 1498 1498 1498 1498 1497 1498 1498 1499 1500 1500 1500 1501 1502 1502 1503 1503 1503 1504 1505 1505 1506 1507 1507 1508 1508 1509 1511 1512 1513 1513
1498 1496 1499 1502 1503 1502 1501 1500 1501 1503 1504 1506 1507 1508 1509 1511 1511 1512 1513 1513 1513 1513 1514 1514 1514 1514 1514 1514 1514 1514 1514 1514 1514 1513 1512 1511 1510 1509 1508 1507 1506 1505 1504 1503 1502 1502 1501 1501 1500 1499 1498 1496 1495 1495 1495 1495 1495 1494 1493 1493 1493 1493 1494 1494 1495 1495 1496 1496 1497 1498 1499 1499 1500 1500 1501 1502 1502 1502 1503 1503 1504 1505 1506 1508 1509 1510 1511
1503 1502 1503 1504 1504 1503 1503 1503 1504 1505 1506 1507 1508 1508 1509 1510 1510 1511 1512 1512 1513 1513 1513 1513 1514 1514 1513 1513 1513 1513 1513 1513 1512 1511 1510 1510 1508 1507 1506 1505 1504 1503 1501 1500 1499 1498 1497 1497 1496 1494 1493 1492 1491 1490 1490 1490 1490 1489 1489 1488 1488 1489 1489 1490 1490 1491 1492 1492 1493 1494 1495 1495 1496 1497 1497 1498 1499 1499 1499 1499 1501 1503 1504 1505 1506 1507 1508
1502 1504 1505 1506 1505 1505 1506 1505 1506 1507 1507 1508 1508 1509 1509 1510 1511 1511 1511 1511 1512 1512 1512 1512 1513 1512 1512 1512 1512 1512 1511 1511 1510 1509 1508 1507 1506 1505 1504 1503 1501 1500 1499 1497 1496 1494 1493 1492 1491 1489 1488 1487 1486 1485 1484 1484 1484 1484 1484 1483 1483 1483 1484 1485 1486 1487 1487 1488 1489 1490 1490 1491 1492 1493 1494 1495 1496 1497 1497 1497 1498 1499 1500 1501 1502 1504 1506
1502 1504 1505 1506 1506 1507 1507 1507 1508 1508 1508 1509 1509 1510 1510 1511 1511 1511 1511 1511 1511 1511 1511 1511 1511 1511 1511 1511 1510 1510 1509 1509 1508 1507 1506 1505 1504 1503 1502 1501 1499 1498 1496 1495 1493 1491 1489 1488 1487 1485 1484 1483 1481 1480 1479 1478 1478 1477 1478 1478 1478 1478 1479 1480 1480 1481 1482 1483 1485 1486 1486 1487 1488 1489 1490 1491 1493 1494 1495 1494 1494 1496 1497 1498 1499 1501 1505
1504 1505 1506 1507 1507 1507 1507 1508 1508 1509 1509 1510 1510 1510 1511 1511 1511 1511 1511 1511 1511 1511 1511 1510 1510 1510 1509 1509 1508 1508 1507 1507 1506 1505 1504 1503 1502 1501 1500 1499 1497 1496 1494 1493 1491 1489 1488 1486 1484 1483 1481 1480 1478 1477 1475 1474 1472 1471 1471 1471 1472 1472 1473 1474 1475 1476 1477 1478 1480 1481 1482 1483 1483 1484 1485 1487 1489 1490 1491 1491 1492 1493 1495 1497 1498 1500 1503
1503 1503 1503 1505 1505 1505 1506 1507 1508 1509 1510 1510 1510 1511 1511 1511 1511 1511 1511 1511 1511 1511 1510 1510 1509 1509 1508 1507 1507 1506 1506 1505 1504 1503 1502 1501 1499 1498 1497 1496 1494 1493 1492 1491 1489 1488 1486 1485 1483 1481 1479 1478 1476 1474 1473 1471 1469 1467 1466 1465 1465 1465 1466 1468 1469 1470 1472 1473 1474 1476 1477 1478 1479 1480 1480 1482 1484 1486 1487 1488 1490 1491 1492 1494 1496 1498 1500
1500 1500 1501 1503 1504 1504 1505 1507 1508 1509 1510 1510 1510 1511 1511 1511 1511 1511 1511 1511 1511 1510 1510 1509 1508 1508 1507 1506 1505 1505 1504 1504 1502 1501 1500 1498 1496 1495 1494 1493 1492 1491 1490 1489 1488 1486 1485 1483 1481 1479 1477 1475 1473 1472 1470 1468 1466 1464 1463 1461 1460 1459 1460 1461 1462 1464 1466 1467 1468 1470 1472 1474 1475 1476 1477 1478 1480 1481 1483 1485 1487 1488 1489 1490 1492 1494 1496
1499 1500 1501 1503 1504 1505 1506 1507 1508 1509 1509 1510 1510 1511 1511 1511 1511 1511 1511 1511 1510 1510 1509 1508 1508 1507 1506 1505 1504 1503 1502 1501 1500 1499 1497 1495 1494 1493 1492 1491 1490 1489 1488 1487 1486 1484 1482 1480 1478 1476 1474 1472 1470 1468 1466 1464 1462 1460 1459 1458 1456 1455 1455 1455 1456 1457 1459 1461 1463 1465 1467 1469 1470 1472 1473 1475 1477 1478 1480 1481 1482 1484 1485 1487 1489 1490 1492
1500 1500 1502 1503 1505 1506 1507 1507 1508 1509 1509 1509 1510 1510 1511 1511 1511 1511 1510 1510 1509 1508 1508 1507 1506 1505 1504 1504 1503 1502 1500 1499 1498 1496 1495 1494 1493 1492 1491 1490 1489 1488 1487 1485 1484 1482 1480 1478 1476 1473 1470 1468 1465 1463 1461 1459 1457 1455 1454 1453 1452 1451 1450 1450 1450 1451 1452 1454 1457 1459 1462 1464 1466 1468 1469 1471 1473 1475 1476 1477 1479 1481 1482 1483 1485 1487 1489
1501 1502 1503 1504 1505 1506 1507 1507 1508 1508 1509 1509 1510 1510 1510 1510 1510 1509 1509 1508 1508 1507 1506 1506 1505 1504 1503 1503 1502 1500 1499 1498 1496 1495 1494 1493 1492 1491 1490 1489 1488 1487 1485 1484 1482 1481 1479 1476 1473 1470 1466 1463 1461 1458 1456 1454 1452 1450 1449 1448 1447 1446 1446 1446 1446 1446 1447 1449 1451 1454 1457 1459 1462 1464 1466 1468 1470 1472 1472 1474 1477 1478 1479 1480 1482 1484 1486
1502 1503 1503 1505 1506 1506 1506 1507 1507 1508 1508 1509 1509 1509 1509 1509 1509 1508 1508 1507 1507 1506 1505 1505 1504 1503 1502 1501 1500 1499 1498 1496 1495 1494 1493 1492 1491 1490 1489 1488 1487 1486 1484 1483 1481 1479 1477 1474 1470 1466 1463 1460 1456 1454 1451 1449 1447 1445 1443 1442 1441 1441 1441 1441 1441 1442 1442 1444 1446 1448 1452 1455 1457 1460 1462 1464 1467 1468 1470 1472 1474 1475 1476 1478 1480 1481 1484
1502 1503 1504 1504 1505 1505 1506 1506 1506 1507 1507 1508 1508 1508 1508 1508 1508 1508 1507 1507 1506 1506 1505 1504 1503 1502 1501 1500 1499 1498 1497 1495 1494 1493 1492 1491 1490 1489 1488 1487 1486 1484 1483 1482 1480 1477 1475 1472 1468 1463 1459 1456 1453 1450 1447 1445 1442 1440 1438 1437 1436 1436 1436 1436 1437 1437 1438 1439 1441 1443 1447 1450 1453 1456 1459 1461 1463 1466 1467 1469 1471 1473 1474 1476 1478 1479 1481
1502 1503 1503 1504 1504 1505 1505 1505 1506 1506 1507 1507 1508 1508 1507 1507 1508 1507 1507 1507 1506 1505 1505 1504 1503 1502 1501 1499 1498 1497 1496 1494 1493 1492 1491 1490 1489 1488 1487 1486 1484 1483 1482 1481 1479 1476 1473 1469 1464 1460 1456 1452 1449 1447 1444 1441 1438 1435 1433 1432 1431 1431 1431 1431 1432 1433 1434 1434 1436 1439 1443 1447 1450 1453 1456 1458 1460 1463 1465 1467 1468 1470 1472 1474 1476 1478 1479
1501 1502 1503 1503 1504 1504 1504 1505 1505 1506 1507 1507 1507 1507 1507 1507 1507 1507 1506 1506 1505 1505 1504 1503 1502 1501 1500 1499 1498 1496 1495 1493 1492 1491 1490 1489 1488 1487 1486 1485 1483 1482 1481 1479 1477 1474 1471 1467 1462 1457 1453 1450 1447 1444 1441 1437 1434 1431 1428 1427 1426 1426 1427 1428 1429 1430 1431 1431 1432 1435 1440 1444 1446 1449 1452 1455 1457 1460 1462 1464 1466 1468 1470 1472 1474 1476 1478
1501 1502 1502 1502 1503 1503 1504 1504 1505 1505 1506 1506 1506 1507 1507 1507 1506 1506 1506 1505 1505 1504 1504 1503 1502 1500 1499 1498 1497 1495 1494 1493 1492 1491 1490 1489 1488 1487 1486 1484 1483 1481 1480 1478 1476 1472 1469 1465 1461 1456 1452 1449 1446 1442 1438 1434 1430 1427 1424 1423 1422 1423 1424 1425 1426 1428 1428 1429 1430 1433 1438 1441 1444 1446 1450 1452 1455 1457 1460 1462 1464 1466 1468 1470 1472 1474 1476
1500 1501 1501 1502 1502 1503 1503 1504 1504 1504 1505 1505 1506 1506 1506 1506 1506 1505 1505 1504 1504 1503 1503 1502 1501 1500 1498 1497 1496 1494 1493 1492 1491 1490 1489 1488 1487 1486 1485 1484 1483 1481 1479 1477 1474 1471 1468 1464 1460 1455 1451 1447 1444 1441 1437 1433 1428 1425 1422 1421 1420 1421 1422 1423 1424 1425 1426 1427 1429 1432 1436 1439 1442 1445 1448 1451 1453 1455 1457 1460 1462 1464 1466 1468 1469 1471 1474
1499 1500 1500 1501 1501 1501 1502 1502 1503 1503 1504 1504 1505 1505 1505 1505 1505 1504 1504 1503 1503 1502 1502 1501 1500 1499 1498 1496 1494 1493 1492 1491 1491 1490 1489 1488 1487 1486 1485 1484 1482 1480 1479 1477 1474 1471 1468 1464 1460 1454 1450 1446 1443 1440 1437 1434 1429 1426 1423 1421 1421 1421 1422 1423 1423 1424 1425 1426 1428 1431 1435 1438 1441 1444 1447 1449 1452 1454 1456 1458 1460 1462 1463 1465 1467 1468 1471
1498 1499 1499 1499 1499 1500 1500 1501 1501 1502 1503 1503 1504 1504 1504 1504 1504 1503 1503 1502 1502 1501 1500 1500 1499 1498 1497 1495 1494 1492 1491 1491 1490 1490 1488 1487 1486 1485 1484 1483 1482 1480 1478 1476 1474 1471 1468 1464 1460 1455 1450 1446 1443 1441 1438 1435 1432 1429 1426 1424 1423 1423 1423 1423 1423 1424 1424 1426 1428 1432 1435 1438 1441 1444 1446 1449 1451 1453 1455 1456 1458 1460 1462 1463 1465 1466 1468
1497 1497 1498 1498 1498 1498 1499 1499 1500 1501 1502 1502 1503 1503 1503 1503 1503 1502 1502 1501 1500 1500 1499 1499 1498 1498 1496 1495 1493 1492 1491 1491 1490 1489 1488 1487 1485 1484 1483 1482 1481 1480 1478 1476 1474 1471 1468 1465 1461 1457 1452 1447 1444 1441 1439 1437 1434 1432 1429 1427 1426 1425 1424 1424 1424 1425 1425 1427 1430 1433 1436 1439 1442 1444 1446 1448 1450 1452 1454 1456 1457 1459 1461 1462 1464 1466 1468
1496 1496 1497 1497 1497 1497 1498 1498 1499 1500 1501 1501 1502 1502 1502 1502 1501 1501 1501 1500 1499 1498 1498 1497 1497 1497 1496 1494 1493 1492 1491 1490 1489 1488 1487 1486 1484 1483 1483 1481 1480 1479 1477 1475 1473 1471 1468 1465 1462 1459 1454 1449 1445 1443 1441 1438 1436 1434 1432 1430 1428 1427 1426 1426 1426 1426 1427 1429 1432 1435 1437 1440 1442 1444 1446 1448 1450 1452 1454 1455 1457 1459 1460 1461 1462 1464 1467
1496 1496 1496 1496 1496 1496 1497 1498 1498 1499 1500 1500 1501 1501 1501 1501 1500 1500 1499 1499 1498 1497 1496 1496 1496 1495 1495 1494 1493 1491 1490 1490 1489 1487 1486 1485 1484 1483 1482 1481 1479 1478 1477 1474 1472 1470 1468 1466 1463 1460 1457 1453 1448 1445 1442 1440 1438 1436 1434 1432 1431 1430 1429 1428 1428 1428 1430 1432 1435 1437 1439 1441 1443 1445 1447 1449 1450 1452 1453 1455 1456 1458 1459 1460 1461 1463 1465
1495 1495 1495 1495 1496 1496 1497 1497 1498 1499 1499 1499 1500 1500 1500 1500 1499 1499 1498 1497 1496 1496 1495 1495 1495 1494 1494 1493 1492 1491 1490 1489 1488 1487 1486 1485 1484 1483 1482 1480 1479 1477 1476 1474 1472 1471 1469 1467 1465 1462 1459 1456 1452 1448 1445 1443 1441 1439 1437 1435 1434 1433 1432 1431 1431 1432 1433 1435 1437 1439 1441 1443 1444 1446 1448 1449 1451 1452 1453 1455 1456 1457 1458 1459 1460 1463 1466
1494 1495 1495 1495 1496 1496 1497 1497 1497 1498 1498 1499 1499 1499 1499 1499 1498 1498 1497 1496 1495 1495 1494 1493 1493 1493 1492 1492 1491 1490 1489 1488 1488 1487 1486 1485 1483 1482 1481 1480 1478 1477 1476 1475 1473 1472 1470 1469 1466 1464 1462 1459 1456 1453 1450 1447 1444 1442 1440 1439 1437 1436 1435 1435 1435 1436 1436 1438 1439 1441 1442 1444 1445 1447 1448 1449 1450 1452 1453 1454 1456 1457 1458 1459 1461 1464 1468
1494 1494 1494 1495 1495 1495 1496 1496 1497 1497 1497 1498 1498 1498 1498 1498 1497 1497 1496 1495 1494 1494 1493 1492 1492 1492 1491 1491 1490 1489 1488 1488 1487 1486 1485 1485 1484 1483 1482 1480 1479 1478 1476 1475 1474 1473 1471 1470 1468 1465 1463 1461 1460 1458 1455 1452 1449 1447 1445 1443 1441 1440 1439 1439 1439 1439 1439 1440 1441 1442 1443 1445 1446 1447 1448 1449 1450 1451 1453 1454 1456 1458 1459 1461 1464 1468 1471
1493 1493 1494 1494 1494 1495 1495 1495 1496 1496 1497 1497 1497 1497 1497 1497 1496 1496 1495 1494 1493 1493 1492 1492 1491 1491 1491 1490 1489 1488 1488 1487 1486 1486 1485 1484 1483 1483 1482 1480 1479 1478 1477 1475 1474 1473 1472 1470 1468 1466 1465 1463 1462 1461 1459 1457 1454 1452 1450 1448 1446 1445 1444 1443 1442 1442 1442 1443 1443 1444 1444 1445 1447 1448 1449 1450 1451 1453 1454 1456 1458 1460 1462 1465 1468 1471 1474
1492 1492 1493 1493 1493 1494 1494 1494 1495 1495 1495 1496 1496 1496 1496 1496 1495 1495 1494 1493 1493 1492 1491 1491 1491 1490 1490 1489 1489 1488 1487 1487 1486 1486 1485 1484 1483 1482 1481 1480 1479 1478 1477 1476 1475 1474 1473 1471 1469 1468 1466 1465 1464 1463 1462 1460 1458 1456 1455 1453 1452 1451 1450 1448 1447 1447 1447 1446 1446 1447 1447 1448 1449 1450 1452 1453 1454 1456 1458 1459 1462 1464 1467 1469 1472 1474 1476
1491 1491 1491 1492 1492 1492 1493 1493 1493 1493 1494 1494 1495 1495 1495 1495 1494 1494 1493 1493 1492 1491 1491 1490 1490 1489 1489 1489 1488 1488 1487 1487 1486 1485 1485 1484 1483 1482 1481 1480 1479 1478 1477 1476 1475 1474 1473 1471 1470 1468 1467 1467 1466 1465 1464 1463 1461 1460 1459 1457 1456 1455 1454 1454 1453 1453 1452 1452 1452 1452 1453 1453 1454 1455 1456 1457 1458 1460 1462 1464 1466 1468 1470 1472 1474 1476 1478
1489 1489 1490 1490 1490 1491 1491 1491 1491 1492 1492 1493 1493 1494 1494 1494 1494 1493 1493 1492 1491 1491 1490 1490 1489 1489 1489 1488 1488 1488 1487 1487 1486 1485 1484 1484 1483 1482 1481 1480 1479 1478 1477 1476 1475 1474 1473 1472 1470 1470 1469 1468 1468 1467 1466 1464 1463 1462 1461 1461 1460 1459 1458 1458 1457 1457 1457 1457 1457 1458 1458 1458 1459 1460 1461 1462 1463 1464 1466 1468 1469 1471 1473 1475 1476 1478 1479
1487 1487 1488 1488 1489 1489 1489 1490 1490 1490 1491 1491 1492 1492 1492 1492 1492 1492 1492 1492 1491 1490 1490 1489 1489 1488 1488 1488 1488 1487 1487 1486 1486 1485 1485 1484 1483 1483 1482 1481 1480 1479 1478 1477 1476 1475 1474 1472 1471 1471 1470 1470 1469 1468 1467 1466 1465 1464 1464 1463 1463 1462 1462 1461 1461 1461 1461 1461 1461 1461 1462 1463 1463 1464 1465 1466 1467 1468 1469 1470 1471 1473 1474 1476 1477 1479 1480
1485 1486 1486 1486 1487 1487 1488 1488 1488 1489 1489 1490 1490 1490 1491 1491 1491 1491 1491 1491 1490 1490 1489 1489 1488 1488 1488 1488 1487 1487 1487 1486 1486 1485 1485 1484 1484 1483 1482 1481 1480 1479 1478 1477 1477 1476 1474 1473 1473 1472 1471 1471 1470 1469 1468 1468 1467 1466 1465 1465 1464 1464 1464 1464 1464 1464 1464 1464 1464 1464 1465 1465 1466 1467 1467 1468 1469 1470 1471 1472 1473 1474 1476 1477 1478 1479 1480
1483 1483 1484 1484 1485 1485 1486 1486 1487 1487 1487 1487 1488 1488 1489 1489 1490 1490 1490 1490 1490 1489 1489 1489 1488 1488 1487 1487 1487 1487 1486 1486 1486 1485 1484 1484 1484 1483 1482 1481 1481 1480 1479 1478 1477 1476 1475 1474 1474 1473 1472 1472 1471 1470 1470 1469 1468 1468 1467 1467 1466 1466 1466 1466 1466 1466 1466 1466 1467 1467 1467 1468 1468 1469 1469 1470 1471 1472 1473 1474 1475 1476 1477 1478 1479 1480 1481
1481 1481 1481 1482 1483 1483 1483 1484 1484 1485 1485 1485 1485 1486 1487 1487 1488 1488 1488 1488 1488 1488 1488 1488 1488 1487 1487 1487 1486 1486 1486 1486 1486 1485 1485 1484 1483 1483 1482 1482 1481 1481 1480 1479 1478 1477 1476 1475 1475 1474 1473 1473 1472 1472 1471 1470 1470 1469 1469 1468 1468 1467 1467 1467 1467 1467 1467 1468 1468 1468 1469 1469 1470 1470 1471 1472 1472 1473 1474 1475 1476 1477 1478 1478 1479 1480 1481
1478 1479 1479 1479 1480 1480 1481 1481 1482 1482 1482 1483 1483 1484 1484 1485 1485 1486 1486 1487 1487 1487 1487 1487 1487 1487 1486 1486 1486 1486 1486 1486 1485 1485 1485 1484 1484 1483 1483 1482 1482 1481 1480 1480 1479 1478 1477 1477 1476 1475 1474 1474 1473 1473 1472 1472 1471 1471 1470 1470 1469 1469 1469 1469 1468 1468 1469 1469 1469 1469 1470 1470 1471 1471 1472 1473 1473 1474 1474 1475 1476 1477 1477 1478 1479 1480 1480
1476 1476 1477 1477 1477 1478 1478 1478 1479 1479 1480 1480 1481 1482 1482 1483 1483 1483 1484 1484 1485 1485 1486 1486 1486 1486 1486 1485 1485 1485 1485 1485 1485 1485 1484 1484 1484 1483 1483 1482 1482 1482 1481 1480 1480 1479 1478 1478 1477 1477 1476 1475 1475 1474 1473 1473 1473 1472 1472 1471 1471 1471 1471 1470 1470 1470 1470 1470 1470 1470 1471 1471 1471 1472 1472 1473 1473 1474 1474 1475 1475 1476 1477 1477 1478 1479 1480
1474 1474 1474 1474 1475 1475 1475 1475 1476 1477 1477 1478 1478 1479 1480 1480 1481 1481 1482 1482 1483 1483 1484 1484 1484 1484 1484 1484 1484 1484 1484 1484 1484 1484 1484 1484 1484 1483 1483 1483 1482 1482 1482 1481 1481 1480 1480 1479 1478 1478 1477 1477 1476 1475 1475 1475 1474 1474 1473 1473 1472 1472 1472 1472 1472 1472 1471 1471 1471 1472 1472 1472 1473 1473 1473 1474 1474 1474 1475 1475 1475 1476 1477 1478 1478 1479 1480
1472 1472 1472 1472 1472 1472 1472 1472 1473 1473 1474 1475 1476 1476 1477 1478 1478 1479 1479 1480 1480 1481 1482 1482 1483 1483 1483 1483 1483 1483 1483 1484 1484 1484 1484 1483 1483 1483 1483 1482 1482 1482 1482 1482 1481 1481 1480 1480 1479 1479 1479 1478 1478 1477 1476 1476 1476 1475 1475 1474 1474 1474 1474 1474 1474 1473 1473 1473 1473 1473 1474 1474 1474 1475 1475 1475 1476 1476 1476 1477 1477 1478 1478 1479 1480 1480 1481